Manitowoc, WI

2:13 AM CDT on April 20, 2018 (GMT -0500)
Manitowoc County

Weather History for KMTW - November, 2012

Change the Weather History Date:

Thursday, November 22, 2012

  Actual Average Record
Temperature  
Mean Temperature 52 °F -  
Max Temperature 59 °F 40 °F 61 °F (1990)
Min Temperature 42 °F 26 °F 9 °F (1964)
Degree Days  
Heating Degree Days 14    
Growing Degree Days 2 (Base 50)    
Moisture  
Dew Point 40 °F    
Average Humidity 67    
Maximum Humidity 82    
Minimum Humidity 48    
Precipitation  
Precipitation 0.00 in - - ()
Sea Level Pressure  
Sea Level Pressure 29.77 in    
Wind  
Wind Speed 11 mph (South)    
Max Wind Speed 29 mph    
Max Gust Speed 38 mph    
Visibility 10 miles    
Events      
Averages and records for this station are not official NWS values.
T = Trace of Precipitation, MM = Missing Value Source: NWS Daily Summary

Daily Weather History Graph

Daily Weather History Graph

Search for Another Location

Airport or City:

Astronomy

Nov. 22, 2012 Rise Set
Actual Time 6:55 AM CST 4:17 PM CST
Civil Twilight 6:23 AM CST 4:49 PM CST
Nautical Twilight 5:48 AM CST 5:25 PM CST
Astronomical Twilight 5:13 AM CST 5:59 PM CST
Moon 1:13 PM CST (11/22) 1:04 AM CST (11/22)
Length of Visible Light 10h 25m
Length of Day
9h 22m
Waxing Gibbous, 71% of the Moon is Illuminated
Nov 22
Waxing Gibbous
Nov 28
Full
Dec 6
Last Quarter
Dec 13
New
Dec 19
First Quarter

Hourly Weather History & Observations

Time (CST) Temp. Windchill Dew Point Humidity Pressure Visibility Wind Dir Wind Speed Gust Speed Precip Events Conditions
12:15 AM 44.6 °F 43.1 °F 37.4 °F 76% 29.96 in 10.0 mi South 3.5 mph - N/A   Clear
12:35 AM 48.2 °F - 39.2 °F 71% 29.96 in 10.0 mi SSW 6.9 mph - N/A   Clear
12:55 AM 48.2 °F - 39.2 °F 71% 29.96 in 10.0 mi South 8.1 mph - N/A   Clear
1:15 AM 48.2 °F - 39.2 °F 71% 29.96 in 10.0 mi South 8.1 mph - N/A   Clear
1:35 AM 50.0 °F - 39.2 °F 66% 29.95 in 10.0 mi SSW 11.5 mph - N/A   Clear
2:15 AM 51.8 °F - 39.2 °F 62% 29.95 in 10.0 mi SSW 9.2 mph - N/A   Clear
2:35 AM 50.0 °F - 39.2 °F 66% 29.94 in 10.0 mi South 9.2 mph 16.1 mph N/A   Clear
2:55 AM 50.0 °F - 39.2 °F 66% 29.94 in 10.0 mi South 8.1 mph 17.3 mph N/A   Clear
3:15 AM 48.2 °F - 37.4 °F 66% 29.93 in 10.0 mi South 9.2 mph - N/A   Clear
3:35 AM 46.4 °F 41.5 °F 37.4 °F 71% 29.92 in 10.0 mi South 10.4 mph - N/A   Clear
3:55 AM 46.4 °F 41.9 °F 37.4 °F 71% 29.91 in 10.0 mi South 9.2 mph - N/A   Clear
4:15 AM 46.4 °F 41.9 °F 37.4 °F 71% 29.91 in 10.0 mi South 9.2 mph - N/A   Clear
4:35 AM 46.4 °F 41.9 °F 37.4 °F 71% 29.90 in 10.0 mi SSE 9.2 mph - N/A   Clear
4:55 AM 46.4 °F 41.1 °F 37.4 °F 71% 29.89 in 10.0 mi South 11.5 mph - N/A   Clear
5:15 AM 46.4 °F 41.1 °F 37.4 °F 71% 29.88 in 10.0 mi South 11.5 mph - N/A   Clear
5:35 AM 46.4 °F 41.9 °F 37.4 °F 71% 29.88 in 10.0 mi South 9.2 mph - N/A   Clear
5:55 AM 44.6 °F 39.7 °F 35.6 °F 71% 29.87 in 10.0 mi South 9.2 mph - N/A   Clear
6:15 AM 44.6 °F 38.8 °F 35.6 °F 71% 29.86 in 10.0 mi South 11.5 mph - N/A   Clear
6:35 AM 44.6 °F 38.4 °F 37.4 °F 76% 29.85 in 10.0 mi South 12.7 mph - N/A   Clear
6:55 AM 44.6 °F 38.4 °F 37.4 °F 76% 29.85 in 9.0 mi South 12.7 mph - N/A   Clear
7:15 AM 46.4 °F 40.4 °F 37.4 °F 71% 29.85 in 8.0 mi South 13.8 mph - N/A   Clear
7:35 AM 46.4 °F 40.4 °F 37.4 °F 71% 29.85 in 8.0 mi South 13.8 mph - N/A   Clear
7:55 AM 48.2 °F - 37.4 °F 66% 29.84 in 8.0 mi South 13.8 mph - N/A   Clear
8:15 AM 48.2 °F - 37.4 °F 66% 29.83 in 9.0 mi South 12.7 mph 19.6 mph N/A   Clear
8:35 AM 51.8 °F - 37.4 °F 58% 29.83 in 9.0 mi South 17.3 mph - N/A   Clear
8:55 AM 53.6 °F - 37.4 °F 54% 29.83 in 10.0 mi South 13.8 mph 21.9 mph N/A   Clear
9:15 AM 53.6 °F - 37.4 °F 54% 29.83 in 10.0 mi South 13.8 mph - N/A   Clear
9:35 AM 55.4 °F - 39.2 °F 54% 29.82 in 10.0 mi South 15.0 mph - N/A   Clear
9:55 AM 57.2 °F - 37.4 °F 48% 29.82 in 10.0 mi South 17.3 mph - N/A   Clear
10:15 AM 59.0 °F - 39.2 °F 48% 29.81 in 10.0 mi South 13.8 mph 23.0 mph N/A   Clear
10:35 AM 57.2 °F - 39.2 °F 51% 29.80 in 10.0 mi SSE 16.1 mph - N/A   Clear
10:55 AM 57.2 °F - 41.0 °F 55% 29.78 in 10.0 mi SSE 16.1 mph - N/A   Clear
11:15 AM 57.2 °F - 41.0 °F 55% 29.77 in 10.0 mi SSE 16.1 mph 20.7 mph N/A   Clear
11:35 AM 55.4 °F - 41.0 °F 58% 29.76 in 10.0 mi SE 13.8 mph - N/A   Clear
11:55 AM 55.4 °F - 41.0 °F 58% 29.74 in 10.0 mi SE 16.1 mph - N/A   Clear
12:15 PM 53.6 °F - 42.8 °F 67% 29.73 in 10.0 mi SSE 17.3 mph 23.0 mph N/A   Clear
12:35 PM 53.6 °F - 42.8 °F 67% 29.72 in 9.0 mi SSE 19.6 mph - N/A   Clear
12:55 PM 53.6 °F - 42.8 °F 67% 29.71 in 10.0 mi South 21.9 mph 25.3 mph N/A   Clear
1:15 PM 53.6 °F - 42.8 °F 67% 29.70 in 9.0 mi South 17.3 mph 26.5 mph N/A   Clear
1:35 PM 53.6 °F - 42.8 °F 67% 29.69 in 9.0 mi SSE 17.3 mph 24.2 mph N/A   Clear
1:55 PM 51.8 °F - 42.8 °F 71% 29.69 in 9.0 mi SSE 19.6 mph 24.2 mph N/A   Clear
2:15 PM 51.8 °F - 42.8 °F 71% 29.68 in 9.0 mi SSE 15.0 mph - N/A   Clear
2:35 PM 51.8 °F - 42.8 °F 71% 29.67 in 9.0 mi SSE 18.4 mph - N/A   Clear
2:55 PM 51.8 °F - 42.8 °F 71% 29.67 in 8.0 mi SSE 16.1 mph - N/A   Clear
3:15 PM 51.8 °F - 42.8 °F 71% 29.67 in 8.0 mi South 15.0 mph - N/A   Clear
3:35 PM 51.8 °F - 42.8 °F 71% 29.67 in 7.0 mi SSE 13.8 mph - N/A   Clear
3:55 PM 50.0 °F - 42.8 °F 76% 29.67 in 7.0 mi South 9.2 mph - N/A   Clear
4:15 PM 50.0 °F - 42.8 °F 76% 29.68 in 7.0 mi South 9.2 mph - N/A   Clear
4:35 PM 50.0 °F - 42.8 °F 76% 29.67 in 8.0 mi South 9.2 mph - N/A   Clear
4:55 PM 50.0 °F - 42.8 °F 76% 29.68 in 10.0 mi South 6.9 mph - N/A   Clear
5:15 PM 50.0 °F - 42.8 °F 76% 29.67 in 10.0 mi SSE 8.1 mph - N/A   Clear
5:35 PM 50.0 °F - 42.8 °F 76% 29.67 in 10.0 mi SSE 9.2 mph - N/A   Clear
5:55 PM 50.0 °F - 42.8 °F 76% 29.66 in 10.0 mi SSE 8.1 mph - N/A   Clear
6:15 PM 48.2 °F - 42.8 °F 82% 29.66 in 10.0 mi South 8.1 mph - N/A   Clear
6:35 PM 48.2 °F - 42.8 °F 82% 29.66 in 10.0 mi SSE 8.1 mph - N/A   Partly Cloudy
6:55 PM 51.8 °F - 44.6 °F 76% 29.65 in 10.0 mi South 6.9 mph - N/A   Mostly Cloudy
7:15 PM 55.4 °F - 44.6 °F 67% 29.65 in 10.0 mi SSW 13.8 mph 18.4 mph N/A   Overcast
7:35 PM 57.2 °F - 44.6 °F 63% 29.64 in 10.0 mi SSW 12.7 mph 20.7 mph N/A   Overcast
7:55 PM 57.2 °F - 44.6 °F 63% 29.64 in 10.0 mi SSW 11.5 mph 24.2 mph N/A   Overcast
8:15 PM 57.2 °F - 44.6 °F 63% 29.64 in 10.0 mi SSW 16.1 mph 21.9 mph N/A   Mostly Cloudy
8:35 PM 55.4 °F - 44.6 °F 67% 29.63 in 10.0 mi SSW 17.3 mph 23.0 mph N/A   Mostly Cloudy
8:55 PM 57.2 °F - 44.6 °F 63% 29.63 in 10.0 mi SSW 13.8 mph 23.0 mph N/A   Overcast
9:15 PM 57.2 °F - 44.6 °F 63% 29.63 in 10.0 mi SW 15.0 mph 23.0 mph N/A   Overcast
9:35 PM 57.2 °F - 44.6 °F 63% 29.62 in 10.0 mi SW 15.0 mph 25.3 mph N/A   Overcast
9:55 PM 55.4 °F - 44.6 °F 67% 29.62 in 10.0 mi WSW 16.1 mph 25.3 mph N/A   Overcast
10:15 PM 53.6 °F - 39.2 °F 58% 29.63 in 10.0 mi West 20.7 mph 34.5 mph N/A   Mostly Cloudy
10:35 PM 50.0 °F - 37.4 °F 62% 29.64 in 10.0 mi West 21.9 mph 35.7 mph N/A   Partly Cloudy
10:55 PM 46.4 °F 37.4 °F 35.6 °F 66% 29.66 in 10.0 mi West 28.8 mph 36.8 mph N/A   Clear
11:15 PM 44.6 °F 35.5 °F 33.8 °F 66% 29.67 in 10.0 mi West 25.3 mph 38.0 mph N/A   Mostly Cloudy
11:35 PM 44.6 °F 35.9 °F 32.0 °F 61% 29.67 in 10.0 mi West 23.0 mph 32.2 mph N/A   Mostly Cloudy
11:55 PM 42.8 °F 34.3 °F 30.2 °F 61% 29.68 in 10.0 mi West 19.6 mph 35.7 mph N/A   Overcast